CW7164 Weather Reports


Display with metric or nautical units.
time (UTC)temp
F
wind
direction
speed
MPH
gust
MPH
rain 1hr
in
rain 24hr
in
rain mn
in
humidity
%
barometer
mb
20200708003930 88 0 0.0 0.0 0.00 0.00 0.00 58 1013.4
20200708003030 89 0 0.0 0.0 0.00 0.00 0.00 56 1013.3
20200708002130 90 228 0.0 2.0 0.00 0.00 0.00 54 1013.3
20200708001230 90 305 0.0 5.0 0.00 0.00 0.00 52 1013.1
20200708000329 90 327 0.0 3.0 0.00 0.00 0.00 51 1013.1
20200707235430 90 320 1.0 4.0 0.00 0.00 0.00 49 1012.9
20200707234530 90 311 1.0 7.0 0.00 0.00 0.00 48 1012.8
20200707233630 91 320 1.0 3.0 0.00 0.00 0.00 50 1012.6
20200707232730 91 303 1.0 4.0 0.00 0.00 0.00 46 1012.5
20200707231830 91 298 0.0 4.0 0.00 0.00 0.00 48 1012.4
20200707230930 90 224 0.0 1.0 0.00 0.00 0.00 49 1012.3
20200707230030 90 191 0.0 1.0 0.00 0.00 0.00 52 1012.2
20200707225129 90 191 0.0 1.0 0.00 0.00 0.00 53 1012.2
20200707224230 89 196 0.0 2.0 0.00 0.00 0.00 53 1012.2
20200707223330 89 226 0.0 2.0 0.00 0.00 0.00 52 1012.2
20200707222430 89 328 0.0 1.0 0.00 0.00 0.00 57 1012.2
20200707221529 89 0 0.0 0.0 0.00 0.00 0.00 57 1012.4
20200707220630 89 327 0.0 1.0 0.00 0.00 0.00 57 1012.4
20200707215730 89 0 0.0 0.0 0.00 0.00 0.00 62 1012.5
20200707214830 88 0 0.0 0.0 0.00 0.00 0.00 60 1012.5
20200707213929 88 0 0.0 0.0 0.00 0.00 0.00 60 1012.7
20200707213030 88 0 0.0 0.0 0.00 0.00 0.00 60 1012.9
20200707212130 88 0 0.0 0.0 0.00 0.00 0.00 56 1012.8
20200707211230 89 0 0.0 0.0 0.00 0.00 0.00 56 1012.9
20200707210329 90 0 0.0 0.0 0.00 0.00 0.00 53 1013.0
20200707205430 91 303 0.0 2.0 0.00 0.00 0.00 50 1013.2
20200707204530 91 322 0.0 2.0 0.00 0.00 0.00 51 1013.4
20200707203630 90 23 0.0 1.0 0.00 0.00 0.00 55 1013.5
20200707202730 91 230 0.0 1.0 0.00 0.00 0.00 49 1013.7
20200707201830 92 312 0.0 4.0 0.00 0.00 0.00 49 1013.8
20200707200930 93 293 1.0 4.0 0.00 0.00 0.00 44 1013.8
20200707200030 94 283 0.0 3.0 0.00 0.00 0.00 46 1013.9
20200707195130 94 54 0.0 2.0 0.00 0.00 0.00 45 1013.8
20200707194230 94 323 1.0 3.0 0.00 0.00 0.00 48 1014.0
20200707193330 93 287 1.0 5.0 0.00 0.00 0.00 47 1014.0
20200707192429 93 284 1.0 5.0 0.00 0.00 0.00 44 1013.9
20200707191529 94 300 0.0 4.0 0.00 0.00 0.00 45 1014.0
20200707190630 94 181 0.0 3.0 0.00 0.00 0.00 48 1014.1
20200707185730 93 297 0.0 2.0 0.00 0.00 0.00 47 1014.2
20200707184830 93 321 0.0 4.0 0.00 0.00 0.00 46 1014.2
20200707183930 93 310 1.0 6.0 0.00 0.00 0.00 45 1014.3
20200707183029 92 280 0.0 4.0 0.00 0.00 0.00 45 1014.4
20200707182130 92 317 1.0 3.0 0.00 0.00 0.00 45 1014.5
20200707181230 91 334 1.0 3.0 0.00 0.00 0.00 46 1014.7
20200707180329 91 222 0.0 2.0 0.00 0.00 0.00 52 1014.8
20200707175430 91 246 1.0 5.0 0.00 0.00 0.00 46 1014.9
20200707174530 91 292 1.0 4.0 0.00 0.00 0.00 47 1015.0
20200707173629 91 286 1.0 10.0 0.00 0.00 0.00 45 1015.1
20200707172730 91 246 0.0 2.0 0.00 0.00 0.00 51 1015.3
20200707171829 90 302 1.0 3.0 0.00 0.00 0.00 49 1015.3
20200707170930 90 301 1.0 8.0 0.00 0.00 0.00 50 1015.4
20200707170029 90 320 1.0 4.0 0.00 0.00 0.00 50 1015.5
20200707165130 90 318 1.0 3.0 0.00 0.00 0.00 52 1015.5
20200707164229 89 229 0.0 2.0 0.00 0.00 0.00 53 1015.6
20200707163329 90 274 1.0 4.0 0.00 0.00 0.00 54 1015.5
20200707162430 90 319 1.0 4.0 0.00 0.00 0.00 54 1015.7
20200707161530 90 310 1.0 2.0 0.00 0.00 0.00 54 1015.6
20200707160630 90 304 1.0 5.0 0.00 0.00 0.00 52 1015.8
20200707155729 90 323 0.0 4.0 0.00 0.00 0.00 51 1015.8
20200707154829 90 322 0.0 3.0 0.00 0.00 0.00 58 1015.8
20200707153930 89 333 0.0 5.0 0.00 0.00 0.00 56 1015.8
20200707153030 89 317 1.0 4.0 0.00 0.00 0.00 56 1015.9
20200707152130 88 315 0.0 2.0 0.00 0.00 0.00 58 1015.9
20200707151230 89 312 0.0 4.0 0.00 0.00 0.00 58 1016.1
20200707150330 88 22 0.0 2.0 0.00 0.00 0.00 58 1016.0
20200707145430 88 137 0.0 1.0 0.00 0.00 0.00 60 1016.0
20200707144530 87 327 0.0 2.0 0.00 0.00 0.00 60 1016.0
20200707143630 87 306 1.0 4.0 0.00 0.00 0.00 59 1015.9
20200707142730 87 333 0.0 2.0 0.00 0.00 0.00 59 1015.9
20200707141830 86 323 0.0 2.0 0.00 0.00 0.00 61 1016.0
20200707140930 85 317 0.0 2.0 0.00 0.00 0.00 64 1016.0
20200707140030 84 306 0.0 3.0 0.00 0.00 0.00 68 1016.0
20200707135130 83 302 0.0 1.0 0.00 0.00 0.00 71 1016.0
20200707134229 81 0 0.0 0.0 0.00 0.00 0.00 74 1015.9
20200707133331 80 355 0.0 2.0 0.00 0.00 0.00 75 1015.7
20200707132429 79 329 0.0 2.0 0.00 0.00 0.00 76 1015.6
20200707131530 78 0 0.0 0.0 0.00 0.00 0.00 80 1015.5
20200707130630 77 0 0.0 0.0 0.00 0.00 0.00 83 1015.6
20200707125730 76 0 0.0 0.0 0.00 0.00 0.00 86 1015.5
20200707124830 76 0 0.0 0.0 0.00 0.00 0.00 87 1015.6
20200707123929 75 0 0.0 0.0 0.00 0.00 0.00 88 1015.7
20200707123030 74 0 0.0 0.0 0.00 0.00 0.00 89 1015.7
20200707122129 73 0 0.0 0.0 0.00 0.00 0.00 90 1015.8
20200707121230 73 0 0.0 0.0 0.00 0.00 0.00 90 1015.6
20200707120330 72 0 0.0 0.0 0.00 0.00 0.00 90 1015.6
20200707115430 72 0 0.0 0.0 0.00 0.00 0.00 90 1015.6
20200707114530 72 0 0.0 0.0 0.00 0.00 0.00 90 1015.6
20200707113630 71 0 0.0 0.0 0.00 0.00 0.00 90 1015.4
20200707112729 71 0 0.0 0.0 0.00 0.00 0.00 90 1015.4
20200707111829 71 0 0.0 0.0 0.00 0.00 0.00 89 1015.4
20200707110930 71 0 0.0 0.0 0.00 0.00 0.00 89 1015.4
20200707110029 71 0 0.0 0.0 0.00 0.00 0.00 89 1015.4
20200707105129 71 0 0.0 0.0 0.00 0.00 0.00 88 1015.3
20200707104230 71 0 0.0 0.0 0.00 0.00 0.00 88 1015.2
20200707103330 71 0 0.0 0.0 0.00 0.00 0.00 88 1015.1
20200707102436 71 0 0.0 0.0 0.00 0.00 0.00 87 1015.0
20200707101529 71 0 0.0 0.0 0.00 0.00 0.00 87 1015.0
20200707100630 71 0 0.0 0.0 0.00 0.00 0.00 87 1014.8
20200707095730 71 0 0.0 0.0 0.00 0.00 0.00 86 1014.8
20200707094830 71 0 0.0 0.0 0.00 0.00 0.00 86 1014.7
20200707093929 71 0 0.0 0.0 0.00 0.00 0.00 86 1014.5
20200707093029 71 0 0.0 0.0 0.00 0.00 0.00 86 1014.5
20200707092130 72 0 0.0 0.0 0.00 0.00 0.00 85 1014.5
20200707091229 72 0 0.0 0.0 0.00 0.00 0.00 85 1014.4
20200707090330 72 0 0.0 0.0 0.00 0.00 0.00 85 1014.4
20200707085430 72 0 0.0 0.0 0.00 0.00 0.00 85 1014.3
20200707084530 72 0 0.0 0.0 0.00 0.00 0.00 84 1014.3
20200707083629 72 0 0.0 0.0 0.00 0.00 0.00 83 1014.3
20200707082730 72 0 0.0 0.0 0.00 0.00 0.00 83 1014.4
20200707081830 72 0 0.0 0.0 0.00 0.00 0.00 83 1014.5
20200707080930 72 0 0.0 0.0 0.00 0.00 0.00 83 1014.5
20200707080030 72 0 0.0 0.0 0.00 0.00 0.00 83 1014.6
20200707075129 72 0 0.0 0.0 0.00 0.00 0.00 84 1014.6
20200707074229 73 0 0.0 0.0 0.00 0.00 0.00 84 1014.7
20200707073329 73 0 0.0 0.0 0.00 0.00 0.00 84 1014.7
20200707072429 73 0 0.0 0.0 0.00 0.00 0.00 83 1014.7
20200707071532 73 0 0.0 0.0 0.00 0.00 0.00 83 1014.7
20200707070630 73 0 0.0 0.0 0.00 0.00 0.00 83 1014.7
20200707065730 74 0 0.0 0.0 0.00 0.00 0.00 82 1014.7
20200707064829 74 0 0.0 0.0 0.00 0.00 0.00 82 1014.9
20200707063930 74 0 0.0 0.0 0.00 0.00 0.00 82 1014.9
20200707063029 74 0 0.0 0.0 0.00 0.00 0.00 82 1015.1
20200707062129 74 0 0.0 0.0 0.00 0.00 0.00 82 1015.1
20200707061230 74 0 0.0 0.0 0.00 0.00 0.00 81 1015.2
20200707060329 75 0 0.0 0.0 0.00 0.01 0.00 81 1015.3
20200707055429 75 0 0.0 0.0 0.00 0.02 0.00 80 1015.3
20200707054530 75 0 0.0 0.0 0.00 0.02 0.00 79 1015.4
20200707053629 75 0 0.0 0.0 0.00 0.02 0.00 78 1015.5
20200707052730 76 0 0.0 0.0 0.00 0.03 0.00 78 1015.6
20200707051829 76 0 0.0 0.0 0.00 0.05 0.00 78 1015.6
20200707050929 76 0 0.0 0.0 0.00 0.15 0.00 77 1015.6
20200707050030 76 0 0.0 0.0 0.00 0.40 0.00 76 1015.7
20200707045130 76 0 0.0 0.0 0.00 0.79 0.42 75 1015.7
20200707044230 77 0 0.0 0.0 0.00 0.84 0.42 74 1015.6
20200707043330 77 0 0.0 0.0 0.00 0.84 0.42 73 1015.8
20200707042430 77 0 0.0 0.0 0.00 0.84 0.42 73 1015.7
20200707041530 77 0 0.0 0.0 0.00 0.84 0.42 72 1015.7
20200707040629 78 0 0.0 0.0 0.00 0.84 0.42 71 1015.6
20200707035730 78 0 0.0 0.0 0.00 0.84 0.42 71 1015.5
20200707034829 78 0 0.0 0.0 0.00 0.84 0.42 72 1015.4
20200707033929 78 0 0.0 0.0 0.00 0.84 0.42 71 1015.4
20200707033030 79 0 0.0 0.0 0.00 0.84 0.42 71 1015.4
20200707032129 79 0 0.0 0.0 0.00 0.84 0.42 70 1015.4
20200707031229 80 0 0.0 0.0 0.00 0.84 0.42 70 1015.3
20200707030329 80 0 0.0 0.0 0.00 0.84 0.42 69 1015.3
20200707025429 80 0 0.0 0.0 0.00 0.84 0.42 68 1015.2
20200707024529 81 0 0.0 0.0 0.00 0.84 0.42 66 1015.0
20200707023630 81 0 0.0 0.0 0.00 0.84 0.42 64 1014.8
20200707022729 82 0 0.0 0.0 0.00 0.84 0.42 63 1014.7
20200707021831 82 0 0.0 0.0 0.00 0.84 0.42 61 1014.5
20200707020930 83 0 0.0 0.0 0.00 0.84 0.42 60 1014.5
20200707020029 83 0 0.0 0.0 0.00 0.84 0.42 60 1014.4
20200707015130 84 0 0.0 0.0 0.00 0.84 0.42 58 1014.3
20200707014229 85 0 0.0 0.0 0.00 0.84 0.42 56 1014.2
20200707013330 85 0 0.0 0.0 0.00 0.84 0.42 56 1014.2
20200707012429 86 0 0.0 0.0 0.00 0.84 0.42 54 1014.1
20200707011529 86 0 0.0 0.0 0.00 0.84 0.42 53 1014.1
20200707010629 87 325 0.0 2.0 0.00 0.84 0.42 53 1014.0
20200707005730 87 2 0.0 1.0 0.00 0.84 0.42 52 1014.1
20200707004830 87 304 0.0 3.0 0.00 0.84 0.42 51 1014.1